Moose Lake, MN

11:07 PM CDT on October 23, 2017 (GMT -0500)
Moose Lake-Carlton County

Weather History for KMZH - August, 2013

Change the Weather History Date:

Sunday, August 18, 2013

  Actual Average Record
Temperature  
Mean Temperature 65 °F -  
Max Temperature 80 °F 78 °F 97 °F (1976)
Min Temperature 50 °F 51 °F 31 °F (1950)
Growing Degree Days 15 (Base 50)    
Moisture  
Dew Point 52 °F    
Average Humidity 65    
Maximum Humidity 100    
Minimum Humidity 34    
Precipitation  
Precipitation 0.00 in - - ()
Sea Level Pressure  
Sea Level Pressure 30.05 in    
Wind  
Wind Speed 5 mph (SSW)    
Max Wind Speed 20 mph    
Max Gust Speed 28 mph    
Visibility 8 miles    
Events Fog    
Averages and records for this station are not official NWS values.
T = Trace of Precipitation, MM = Missing Value Source: NWS Daily Summary

Daily Weather History Graph

Daily Weather History Graph

Search for Another Location

Airport or City:

Trip Planner

Search our weather history database for the weather conditions in past years. The results will help you decide how hot, cold, wet, or windy it might be!

Date:

Astronomy

Aug. 18, 2013 Rise Set
Actual Time 6:13 AM CDT 8:15 PM CDT
Civil Twilight 5:41 AM CDT 8:47 PM CDT
Nautical Twilight 5:01 AM CDT 9:27 PM CDT
Astronomical Twilight 4:16 AM CDT 10:11 PM CDT
Moon 6:24 PM CDT (8/18) 3:18 AM CDT (8/18)
Length of Visible Light 15h 06m
Length of Day
14h 01m
Waxing Gibbous, 92% of the Moon is Illuminated
Aug 18
Waxing Gibbous
Aug 20
Full
Aug 28
Last Quarter
Sep 5
New
Sep 12
First Quarter

Hourly Weather History & Observations

Time (CDT) Temp. Dew Point Humidity Pressure Visibility Wind Dir Wind Speed Gust Speed Precip Events Conditions
12:08 AM 57.2 °F 53.6 °F 88% 30.08 in 10.0 mi Calm Calm - N/A   Clear
12:28 AM 55.4 °F 53.6 °F 94% 30.09 in 10.0 mi Calm Calm - N/A   Clear
12:48 AM 55.4 °F 53.6 °F 94% 30.09 in 10.0 mi Calm Calm - N/A   Clear
1:08 AM 53.6 °F 51.8 °F 94% 30.09 in 10.0 mi Calm Calm - N/A   Clear
1:29 AM 53.6 °F 51.8 °F 94% 30.09 in 7.0 mi Calm Calm - N/A   Clear
1:49 AM 53.6 °F 53.6 °F 100% 30.09 in 7.0 mi Calm Calm - N/A   Clear
2:10 AM 53.6 °F 51.8 °F 94% 30.09 in 3.0 mi Calm Calm - N/A   Clear
2:28 AM 53.6 °F 51.8 °F 94% 30.09 in 4.0 mi Calm Calm - N/A   Clear
2:48 AM 51.8 °F 51.8 °F 100% 30.09 in 5.0 mi Calm Calm - N/A   Clear
3:09 AM 51.8 °F 51.8 °F 100% 30.09 in 1.8 mi Calm Calm - N/A   Mist
3:30 AM 51.8 °F 51.8 °F 100% 30.09 in 5.0 mi Calm Calm - N/A   Clear
3:50 AM 51.8 °F 50.0 °F 94% 30.09 in 1.2 mi Calm Calm - N/A   Mist
4:13 AM 51.8 °F 51.8 °F 100% 30.09 in 3.0 mi Calm Calm - N/A   Mist
4:29 AM 51.8 °F 50.0 °F 94% 30.09 in 0.5 mi Calm Calm - N/A Fog Fog
4:49 AM 51.8 °F 50.0 °F 94% 30.09 in 3.0 mi Calm Calm - N/A   Mist
5:08 AM 51.8 °F 50.0 °F 94% 30.09 in 4.0 mi Calm Calm - N/A   Clear
5:28 AM 50.0 °F 48.2 °F 94% 30.09 in 4.0 mi Calm Calm - N/A   Clear
5:48 AM 50.0 °F 50.0 °F 100% 30.09 in 0.2 mi Calm Calm - N/A Fog Fog
6:09 AM 50.0 °F 50.0 °F 100% 30.10 in 0.8 mi Calm Calm - N/A   Mist
6:29 AM 50.0 °F 50.0 °F 100% 30.11 in 0.2 mi Calm Calm - N/A Fog Fog
6:48 AM 50.0 °F 50.0 °F 100% 30.11 in 1.5 mi Calm Calm - N/A   Mist
7:08 AM 50.0 °F 50.0 °F 100% 30.11 in 0.8 mi Calm Calm - N/A   Mist
7:28 AM 51.8 °F 51.8 °F 100% 30.12 in 3.0 mi Calm Calm - N/A   Clear
7:50 AM 53.6 °F 53.6 °F 100% 30.12 in 5.0 mi Calm Calm - N/A   Mostly Cloudy
8:11 AM 55.4 °F 55.4 °F 100% 30.12 in 10.0 mi SW 3.5 mph - N/A   Mostly Cloudy
8:30 AM 59.0 °F 57.2 °F 94% 30.12 in 10.0 mi SW 5.8 mph - N/A   Scattered Clouds
8:50 AM 62.6 °F 55.4 °F 77% 30.11 in 10.0 mi SSW 8.1 mph - N/A   Clear
9:08 AM 64.4 °F 55.4 °F 73% 30.10 in 10.0 mi SSW 6.9 mph - N/A   Clear
9:28 AM 68.0 °F 55.4 °F 64% 30.09 in 10.0 mi SW 10.4 mph - N/A   Clear
9:48 AM 69.8 °F 55.4 °F 60% 30.09 in 10.0 mi SSW 10.4 mph - N/A   Clear
10:08 AM 71.6 °F 55.4 °F 57% 30.09 in 10.0 mi SSW 11.5 mph 20.7 mph N/A   Clear
10:28 AM 71.6 °F 53.6 °F 53% 30.08 in 10.0 mi SSW 11.5 mph 17.3 mph N/A   Clear
10:48 AM 73.4 °F 55.4 °F 53% 30.08 in 10.0 mi SSW 8.1 mph - N/A   Clear
11:08 AM 73.4 °F 53.6 °F 50% 30.07 in 10.0 mi SSW 9.2 mph 19.6 mph N/A   Clear
11:28 AM 77.0 °F 53.6 °F 44% 30.06 in 10.0 mi SW 13.8 mph 17.3 mph N/A   Clear
11:48 AM 77.0 °F 53.6 °F 44% 30.06 in 10.0 mi SSW 13.8 mph 23.0 mph N/A   Clear
12:08 PM 77.0 °F 53.6 °F 44% 30.04 in 10.0 mi SSW 17.3 mph - N/A   Clear
12:28 PM 78.8 °F 51.8 °F 39% 30.04 in 10.0 mi SW 15.0 mph 24.2 mph N/A   Clear
12:48 PM 78.8 °F 51.8 °F 39% 30.03 in 10.0 mi SSW 12.7 mph 19.6 mph N/A   Clear
1:08 PM 78.8 °F 51.8 °F 39% 30.03 in 10.0 mi SSW 17.3 mph 24.2 mph N/A   Clear
1:28 PM 78.8 °F 51.8 °F 39% 30.04 in 10.0 mi SSW 12.7 mph 23.0 mph N/A   Clear
1:48 PM 80.6 °F 51.8 °F 37% 30.04 in 10.0 mi SSW 9.2 mph 24.2 mph N/A   Clear
2:08 PM 80.6 °F 50.0 °F 34% 30.04 in 10.0 mi SW 16.1 mph 20.7 mph N/A   Clear
2:28 PM 80.6 °F 50.0 °F 34% 30.03 in 10.0 mi SW 18.4 mph 25.3 mph N/A   Clear
2:48 PM 80.6 °F 50.0 °F 34% 30.03 in 10.0 mi SSW 16.1 mph 26.5 mph N/A   Clear
3:08 PM 80.6 °F 50.0 °F 34% 30.03 in 10.0 mi SSW 19.6 mph 27.6 mph N/A   Clear
3:28 PM 80.6 °F 50.0 °F 34% 30.02 in 10.0 mi SSW 17.3 mph 26.5 mph N/A   Clear
3:48 PM 80.6 °F 50.0 °F 34% 30.02 in 10.0 mi SW 15.0 mph 21.9 mph N/A   Clear
4:08 PM 80.6 °F 50.0 °F 34% 30.01 in 10.0 mi SW 15.0 mph 20.7 mph N/A   Clear
4:28 PM 80.6 °F 51.8 °F 37% 30.01 in 10.0 mi SW 12.7 mph 23.0 mph N/A   Clear
4:48 PM 80.6 °F 51.8 °F 37% 30.00 in 10.0 mi WSW 12.7 mph 20.7 mph N/A   Clear
5:08 PM 78.8 °F 51.8 °F 39% 30.00 in 10.0 mi SW 11.5 mph - N/A   Clear
5:28 PM 80.6 °F 51.8 °F 37% 30.00 in 10.0 mi SW 13.8 mph 19.6 mph N/A   Clear
5:48 PM 78.8 °F 51.8 °F 39% 29.99 in 10.0 mi SSW 15.0 mph 23.0 mph N/A   Clear
6:07 PM 78.8 °F 51.8 °F 39% 29.99 in 10.0 mi SSW 13.8 mph 18.4 mph N/A   Clear
6:28 PM 78.8 °F 51.8 °F 39% 29.99 in 10.0 mi SSW 13.8 mph 19.6 mph N/A   Clear
6:48 PM 77.0 °F 51.8 °F 41% 29.98 in 10.0 mi SSW 12.7 mph 19.6 mph N/A   Clear
7:08 PM 77.0 °F 51.8 °F 41% 29.98 in 10.0 mi SW 8.1 mph - N/A   Clear
7:28 PM 75.2 °F 51.8 °F 44% 29.96 in 10.0 mi SSW 11.5 mph 20.7 mph N/A   Clear
7:48 PM 73.4 °F 51.8 °F 47% 29.96 in 10.0 mi SSW 8.1 mph - N/A   Clear
8:08 PM 71.6 °F 51.8 °F 50% 29.96 in 10.0 mi SSW 8.1 mph - N/A   Clear
8:27 PM 71.6 °F 53.6 °F 53% 29.96 in 10.0 mi South 8.1 mph - N/A   Clear
8:48 PM 69.8 °F 53.6 °F 56% 29.97 in 10.0 mi SSW 6.9 mph - N/A   Clear
9:08 PM 69.8 °F 53.6 °F 56% 29.99 in 10.0 mi SW 5.8 mph - N/A   Clear
9:28 PM 68.0 °F 53.6 °F 60% 29.99 in 10.0 mi SW 4.6 mph - N/A   Mostly Cloudy
9:48 PM 69.8 °F 53.6 °F 56% 29.99 in 10.0 mi SW 4.6 mph - N/A   Overcast
10:08 PM 68.0 °F 55.4 °F 64% 29.99 in 10.0 mi SW 4.6 mph - N/A   Overcast
10:28 PM 68.0 °F 55.4 °F 64% 29.99 in 10.0 mi SSW 6.9 mph - N/A   Mostly Cloudy
10:48 PM 69.8 °F 55.4 °F 60% 29.97 in 10.0 mi SSW 6.9 mph - N/A   Scattered Clouds
11:08 PM 69.8 °F 55.4 °F 60% 29.98 in 10.0 mi SSW 8.1 mph - N/A   Scattered Clouds
11:28 PM 68.0 °F 55.4 °F 64% 29.98 in 10.0 mi SW 5.8 mph - N/A   Scattered Clouds
11:48 PM 68.0 °F 55.4 °F 64% 29.98 in 10.0 mi SW 5.8 mph - N/A   Clear